Theta_e
319 319 320 319 319 321 321 323 322 322 323 324 321 319 319 318 317 317 316 315 314 314
319 319 319 320 322 322 323 322 321 321 321 322 321 320 319 318 317 317 317 317 315 315
318 318 318 319 319 320 321 321 320 320 320 321 320 320 320 318 317 316 316 316 315 315
317 317 316 316 318 319 319 320 319 319 319 319 318 319 318 317 317 315 315 315 315 315
317 317 316 315 315 318 317 318 318 318 318 318 317 317 316 315 316 315 314 314 314 313
317 317 316 316 316 316 317 317 317 317 316 316 317 317 317 316 315 315 315 314 313 306
316 316 316 316 315 314 315 316 316 316 316 316 317 317 316 316 314 310 301 297 294 293
316 315 315 314 315 316 315 315 315 315 315 315 315 313 313 313 309 297 292 291 290 290
315 313 313 313 313 315 315 314 313 309 305 301 299 293 298 301 297 293 290 288 288 288
314 312 311 312 312 311 304 301 297 295 294 291 292 292 293 292 291 289 288 287 286 286
314 312 312 309 302 296 295 293 291 289 289 288 289 289 289 287 286 285 285 285 285 285
314 308 301 296 293 292 290 289 287 287 287 286 286 287 287 286 284 282 281 282 282 283
305 300 295 292 290 289 288 286 286 285 285 286 285 286 286 285 283 281 280 281 282 283
299 296 292 290 289 288 286 285 285 284 285 284 285 285 285 285 282 281 280 280 279 280
Wind_Speed
8 5 6 8 7 8 10 8 15 15 14 14 13 13 12 9 8 7 7 8 4 3
8 7 7 7 7 7 12 10 13 17 15 14 15 15 13 9 10 8 7 9 4 2
10 7 6 6 6 5 6 11 12 13 15 16 14 16 15 12 11 8 6 6 8 6
9 8 7 6 7 6 6 10 9 13 13 15 16 15 12 11 12 11 8 7 8 10
8 10 8 6 6 8 8 8 10 9 11 12 14 15 13 12 10 10 10 9 9 9
9 9 8 7 7 7 8 9 9 10 10 9 10 10 11 10 11 11 10 5 5 4
10 10 8 8 8 7 7 9 10 10 10 9 10 10 10 10 8 9 9 9 9 7
9 9 9 8 9 8 7 7 8 9 8 7 7 6 8 7 9 12 12 12 12 13
10 9 10 9 9 9 8 6 6 7 7 6 4 2 10 12 11 12 13 14 13 12
7 8 9 10 9 8 8 9 9 9 9 9 7 15 19 21 12 13 13 13 12 11
8 7 7 7 9 8 8 10 9 10 10 11 9 18 25 26 16 15 13 12 12 12
10 8 10 10 10 9 11 10 10 9 11 12 12 17 20 23 16 16 15 13 12 12
11 12 11 13 11 9 11 12 10 13 12 16 13 17 18 17 13 17 12 13 14 19
11 12 12 13 12 12 14 14 14 14 13 14 13 15 21 22 13 12 12 11 11 10
Wind_Direction
162 179 205 212 205 212 212 204 178 174 172 174 161 154 152 152 144 126 133 137 128 114
166 183 195 205 220 234 217 176 181 169 164 161 156 155 152 153 133 137 158 164 139 145
165 173 160 160 167 172 144 157 167 160 169 162 161 159 159 155 143 156 158 156 175 191
156 157 160 157 150 138 137 144 151 153 156 152 152 149 150 149 158 155 167 168 190 212
159 150 156 151 149 142 135 141 145 152 150 149 151 149 152 154 159 176 177 189 200 219
168 160 156 147 146 143 143 148 146 147 145 146 149 159 161 176 176 182 192 172 177 109
175 165 155 147 146 147 148 149 155 160 162 165 166 170 165 169 155 102 89 83 77 68
176 160 148 146 148 146 153 158 158 158 160 159 158 156 157 142 117 112 101 90 86 77
176 164 156 151 153 151 149 139 118 94 97 84 78 144 144 122 115 112 113 110 100 94
175 170 163 154 149 137 109 106 93 91 97 87 74 102 101 103 100 106 108 111 111 106
157 160 158 130 107 100 94 97 98 91 88 90 80 106 108 102 100 95 92 95 102 105
160 125 113 102 102 101 104 93 92 92 93 96 92 98 106 107 102 98 93 90 89 93
125 126 121 121 113 101 100 102 96 89 85 92 93 94 100 103 111 106 102 95 89 90
112 120 123 119 122 118 112 106 101 98 93 92 91 95 98 99 99 102 102 89 89 87